STARLINK-32092, 59700

Orbit data source: Space-Track

STARLINK-32092, 59700 is a payload satellite owned by SpaceX/Seattle (US) in LEO that was launched on Wed, 08 May 2024 UTC via an FALCON 9 launch vehicle from the Air Force Eastern Test Range (AFETR). Payload-class satellites include a variety of spacecraft equipped with specific instruments for various scientific and technological missions. These include communications satellites like Starlink; space stations such as the ISS; scientific satellites like the Hubble; Earth observation satellites from companies like Planet Labs, Umbra, and HawkEye 360; GPS; miniature CubeSats for education and research; and military/defense satellites.

Loading next visibility...
Identifier
59700, 2024-086U
Orbit
LEO
Country
Flag of USUS
Related business
Manufacturer
SpaceX/Seattle
Mission
Operational Commercial Communications
Bus & Motor
STARLINK V2M, Unknown motor
Mass
730 kg wet, ~700 kg dry
Launch date (UTC)
2024-05-08 (2 years ago)
Launch vehicle
FALCON 9
Launch site
Air Force Eastern Test Range (AFETR)
Object type
Payload
Rocket body
Debris
Shape & HBR
Box + 2 Pan, 17.7 m
Radar Cross Section
33.884 m², Large (>1 m²)

Expand to show TLE details & history
Last TLE update: 2 days ago

TLE from 2 days ago
0 STARLINK-32092
1 59700U 24086U   26171.36401292 -.00000530  00000-0 -97236-5 0  9997
2 59700  43.0008 200.1470 0001402 272.4095  87.6596 15.27582622119819
Epoch: 2026-06-20T08:44Z
TLE epoch observation values (Epoch: 2026-06-20T08:44:10.716Z)
Latitude
-0.00002°
Longitude
160.52263°
Altitude
482.778 km
Speed
7.626 km/s
True Right ascension
13h 20m 35s
True Declination
0° 00' 00"
Sunlit
Object was in daylight at epoch
Visualization orbit readout
Latitude
Unknown
Longitude
Unknown
Altitude
Unknown
Speed
Unknown
Apparent Right ascension
Unknown
Apparent Declination
Unknown
Sunlit
N/A
Visualization observer readout
Local Sidereal Time
21:27:17
Azimuth
Unknown
Elevation
Unknown
Doppler factor
Unknown
Orbital elements
Apogee altitude
485.948 km
Perigee altitude
484.024 km
Semi-major axis
6,863.123 km
Eccentricity
0.00014
Inclination
43.0008°
RAAN
200.147°
Arg. of periapsis
272.4095°
True anomaly
87.67565°
Mean anomaly
87.6596°
Eccentric anomaly
87.66763°
Mean motion
3.81734 °/min
Orbital period
94.31 mins
BSTAR
-0.0000097236
Loading maneuver chart data...
Computing Atmospheric mass density...
Loading historical data...
Loading historical data...
Loading historical data...
Loading historical data...
Loading historical data...
Loading historical data...
Loading historical data...

Documentation

Showing up to 5 results
|